Regional Weather Roundup
Issued by NWS

Home | Current Version | Previous Version | Text Only | Print | Product List | Glossary On
Versions: 1 2 3 4 5 6 7 8 9 10 11 12 13 14 15 16 17 18 19 20 21 22 23 24 25 26 27 28 29 30 31 32 33 34 35 36 37 38 39 40 41 42 43 44 45 46 47 48 49 50
000
ASUS43 KBIS 170110
RWRND

NORTH DAKOTA REGIONAL WEATHER ROUNDUP
NATIONAL WEATHER SERVICE BISMARCK ND
800 PM CDT WED AUG 16 2017

NOTE: "FAIR" INDICATES FEW OR NO CLOUDS BELOW 12,000 FEET WITH NO
SIGNIFICANT WEATHER AND/OR OBSTRUCTIONS TO VISIBILITY.


NDZ001>003-009>011-017-170200-
NORTHWEST NORTH DAKOTA

CITY           SKY/WX    TMP DP  RH WIND       PRES   REMARKS
WILLISTON      PTCLDY    78  51  38 SE6       29.86F
MINOT          CLEAR     74  53  48 NE5       29.89S
MINOT AFB      CLEAR     75  50  41 E7        29.87S
$$

NDZ018>021-031>035-040>046-170200-
SOUTHWEST NORTH DAKOTA

CITY           SKY/WX    TMP DP  RH WIND       PRES   REMARKS
BISMARCK       PTCLDY    75  52  44 N7        29.90S
DICKINSON      CLEAR     76  53  44 E6        29.91S
GARRISON         N/A     73  52  47 E3        29.90R
HETTINGER ARPT CLEAR     75  50  41 SE3       29.95S
$$

NDZ004>008-012>016-024-026-027-054-170200-
NORTHEAST NORTH DAKOTA

CITY           SKY/WX    TMP DP  RH WIND       PRES   REMARKS
GRAND FORKS    CLOUDY    67  65  93 N6        29.82S
GRND FRKS AFB  CLOUDY    67  63  87 NE7       29.84S
DEVILS LAKE    PTCLDY    68  59  73 N7        29.87S
$$

NDZ022-023-025-028>030-036>039-047>053-170200-
SOUTHEAST NORTH DAKOTA

CITY           SKY/WX    TMP DP  RH WIND       PRES   REMARKS
FARGO          CLOUDY    66  65  96 N10       29.80F
JAMESTOWN      CLOUDY    67  62  84 N7        29.85S
$$




USA.gov is the U.S. government's official web portal to all federal, state and local government web resources and services.